Lid_Strength_Index
0 1 3 5 8 7 8 7 7 7 7 6 5 5 6 5 6 9 1 0 -0 -0 -1 -1 -1 -1 -1 -1 -1 -1 -1 -1 -1 -1 -1 -1 -1 -1 -1 -1 -1 -1 -1 -1 -1 -1 -1 -1 -1
-0 4 5 6 10 10 8 6 6 6 6 5 5 6 6 6 3 3 2 0 -0 -0 -1 -1 -1 -1 -1 -1 -1 -1 -1 -1 -1 -1 -1 -1 -1 -1 -1 -1 -1 -1 -1 -1 -1 -1 -1 -1 -1
1 2 8 10 11 11 9 6 5 4 4 6 7 5 4 5 3 2 0 -0 -0 -0 -1 -1 -1 -1 -1 -1 -1 -1 -1 -1 -1 -1 -1 -1 -1 -1 -1 -1 -1 -1 -1 -1 -1 -1 -1 -1 -1
3 4 5 10 12 10 9 6 6 5 4 3 5 7 5 2 3 1 0 -0 0 -0 -1 -1 -1 -1 -1 -1 -1 -1 -1 -1 -1 -1 -1 -1 -1 -1 -1 -1 -1 -1 -1 -1 -1 -1 -1 -1 -1
3 5 8 10 10 9 8 7 6 6 5 4 3 5 6 2 1 1 0 0 0 0 -1 -1 -1 -1 -1 -1 -1 -1 -1 -1 -1 -1 -1 -1 -1 -1 -1 -1 -1 -1 -1 -1 -1 -1 -1 -1 -1
6 6 10 10 9 7 7 7 7 7 5 4 4 4 4 2 2 1 0 0 -0 0 -0 -1 -1 -1 -1 -1 -1 -1 -1 -1 -1 -1 -1 -1 -1 -1 -1 -1 -1 -1 -1 -1 -1 -1 -1 -1 -1
7 8 10 9 9 8 7 5 8 8 7 5 4 5 3 3 1 1 0 -0 -0 -0 -0 -0 -1 -1 -1 -1 -1 -1 -1 -1 -1 -1 -1 -1 -1 -1 -1 -1 -1 -1 -1 -1 -1 -1 -1 -1 -1
5 7 9 9 9 9 6 5 6 8 8 5 4 5 4 2 1 1 0 0 0 -0 -0 -0 -1 -1 -1 -1 -1 -1 -1 -1 -1 -1 -1 -1 -1 -1 -1 -1 -1 -1 -1 -1 -1 -1 -1 -1 -1
4 8 10 9 8 8 5 7 5 5 7 7 6 5 3 1 1 1 1 1 1 1 0 -0 -0 -1 -1 -1 -1 -1 -1 -1 -1 -1 -1 -1 -2 -2 -2 -2 -1 -1 -1 -1 -1 -1 -1 -1 -1
6 9 9 7 6 7 6 7 6 6 6 8 7 6 4 1 2 2 2 2 2 1 1 -0 -0 -0 -1 -1 -1 -1 -1 -1 -2 -2 -2 -2 -2 -2 -2 -2 -1 -1 -1 -1 -1 -1 -1 -1 -1
8 9 7 7 6 5 6 6 5 6 6 6 8 7 6 2 2 2 2 2 2 1 1 0 -0 -1 -1 -0 -1 -1 -1 -1 -1 -2 -2 -2 -2 -2 -1 -1 -1 -2 -1 -1 -1 -1 -1 -1 -1
9 8 8 7 6 6 6 5 6 6 6 4 5 6 6 5 4 2 2 2 1 1 1 0 -0 -0 -1 -0 -0 -1 -0 -1 -1 -1 -2 -1 -1 -1 -1 -1 -1 -1 -1 -1 -1 -1 -2 -1 -1
8 8 7 7 7 6 5 6 6 6 5 4 4 5 6 6 5 5 1 1 1 1 1 0 -0 -0 -0 -1 -0 -1 -0 -0 -1 -1 -1 -1 -1 -1 -1 -1 -1 -1 -2 -1 -1 -1 -1 -1 -1
6 6 7 7 7 7 7 7 6 5 4 4 4 4 6 6 5 5 4 2 1 1 1 0 0 -0 -1 -0 -1 -0 -1 -1 -1 -1 -1 -2 -1 -1 -1 -1 -1 -1 -1 -1 -1 -1 -1 -1 -1
5 8 7 7 7 8 6 9 9 6 4 4 4 3 3 5 5 4 4 2 1 1 1 1 0 -0 -0 -1 -1 -0 -1 -1 -1 -1 -2 -2 -2 -2 -1 -1 -1 -1 -1 -1 -1 -1 -1 -0 -1
7 7 9 7 7 7 7 12 7 6 6 6 4 3 3 3 4 3 3 1 1 1 1 1 1 0 -0 -0 -0 -0 -1 -1 -1 -1 -1 -1 -2 -2 -1 -1 -1 -1 -1 -1 -1 -0 -0 -0 0
7 11 9 8 5 6 8 11 7 6 7 7 5 4 3 3 2 3 3 2 1 1 1 1 0 0 -0 -0 -0 -1 -1 -1 -1 -1 -1 -1 -1 -2 -1 -1 -1 -2 -1 -1 -1 -0 -0 1 1
10 10 9 9 7 6 9 9 7 6 6 7 6 5 4 4 3 1 2 2 1 1 1 1 1 0 -0 -0 -0 -0 -0 -0 -1 -1 -1 -1 -1 -1 -1 -1 -1 -1 -1 -1 -1 -0 -0 1 1
8 9 9 8 6 7 8 8 8 6 6 6 6 5 4 4 2 1 1 1 1 1 1 2 1 1 1 1 1 1 1 0 -0 -1 -1 -1 -1 -1 -1 -1 -1 -1 1 1 0 0 1 1 1
8 10 10 8 7 7 8 8 7 7 7 6 6 5 4 3 3 2 1 2 2 2 2 1 1 1 1 1 0 0 0 0 -0 -1 -1 -1 -1 -1 -1 -1 -0 -1 -0 2 1 1 2 1 1
9 10 10 10 8 7 8 9 8 7 6 6 5 5 4 4 3 2 2 3 3 3 2 2 1 1 0 -0 0 0 0 0 1 0 0 -1 -1 -1 -1 -0 -1 0 1 2 2 2 1 2 1
13 8 8 9 10 12 8 13 9 8 7 6 6 5 5 4 3 2 3 4 3 2 1 1 1 1 0 0 1 1 1 2 2 1 1 1 -0 1 0 1 1 0 2 1 1 1 1 1 2
11 7 9 9 10 10 10 11 9 7 8 7 6 5 4 4 3 3 3 3 2 2 2 1 1 1 1 0 1 1 2 1 1 1 0 0 -0 -1 -1 -1 -1 1 1 -0 0 0 1 1 1
7 8 9 9 10 15 11 11 11 9 8 7 6 5 4 4 3 2 2 2 2 2 2 1 1 1 1 1 1 1 1 1 1 1 1 1 0 -0 -1 -1 -1 -1 -1 -0 -0 -0 2 2 2
8 11 17 18 19 17 10 11 10 7 6 6 6 5 4 3 3 3 3 3 2 2 2 2 2 2 1 1 1 1 1 1 1 1 1 1 1 1 -0 -1 -1 -0 0 1 3 3 3 3 2
10 11 14 19 17 14 10 13 10 6 5 4 4 4 4 3 3 3 3 3 3 2 2 2 2 2 2 1 1 1 0 1 1 -0 0 1 1 0 -1 0 2 4 4 5 3 3 2 2 2
11 14 8 13 11 14 12 10 7 6 6 6 5 5 4 4 3 3 3 3 3 2 2 2 2 2 2 1 1 1 0 0 0 -0 -0 1 -0 1 1 2 5 5 4 4 3 3 3 2 1
10 8 14 13 18 18 13 12 11 8 7 6 6 5 4 3 3 2 3 3 2 3 2 2 2 2 2 1 1 1 0 0 0 0 0 0 1 1 2 4 5 4 4 4 3 2 1 1 1
13 13 11 11 12 17 16 12 7 7 6 6 5 4 4 4 3 3 3 3 3 2 3 2 2 2 2 1 1 1 1 1 0 0 1 2 2 3 4 5 6 5 4 3 3 2 2 2 2
9 11 11 14 15 13 14 15 7 6 5 5 5 4 3 3 3 2 3 3 3 3 3 3 2 3 2 2 2 3 2 2 2 2 1 2 4 5 5 6 5 4 3 2 2 2 2 2 2